When you browse on this site, cookies collect data to enhance your experience and personalize the content and advertising you see.
Visit our Privacy Policy to learn more. By continuing to use the site, you agree to this use of cookies and data.
  • In Latvia
  • List of Countries
  • For 7 days
  • Water Temperature
  • Satellite Maps
  • Weather Map
  • Weather Widgets
  • user-avatar
    Login

    Hourly Weather West Coon Rapids

    Today, 24 February, Sunday

    Time Temperature Precipitation Wind Pressure Humidity
    00:00 -6°C° 1 mm 7 mps 727 mmHg 93%
    01:00 -7°C° 0.4 mm 8 mps 727 mmHg 91%
    02:00 -8°C° 0.4 mm 8 mps 727 mmHg 90%
    03:00 -11°C° 0.4 mm 9 mps 727 mmHg 88%
    04:00 -11°C° 0.1 mm 9 mps 728 mmHg 87%
    05:00 -11°C° 0.1 mm 9 mps 728 mmHg 85%
    06:00 -13°C° 0.1 mm 10 mps 729 mmHg 83%
    07:00 -13°C° 0 mm 10 mps 730 mmHg 82%
    08:00 -14°C° 0 mm 10 mps 731 mmHg 81%
    09:00 -14°C° 0 mm 10 mps 732 mmHg 80%
    10:00 -15°C° 0 mm 10 mps 733 mmHg 80%
    11:00 -17°C° 0 mm 10 mps 734 mmHg 80%
    12:00 -17°C° 0 mm 11 mps 735 mmHg 80%
    13:00 -18°C° 0 mm 11 mps 736 mmHg 80%
    14:00 -19°C° 0 mm 11 mps 737 mmHg 80%
    15:00 -20°C° 0 mm 10 mps 738 mmHg 80%
    16:00 -23°C° 0 mm 10 mps 739 mmHg 80%
    17:00 -24°C° 0 mm 9 mps 740 mmHg 80%
    18:00 -24°C° 0 mm 8 mps 741 mmHg 79%
    19:00 -25°C° 0 mm 7 mps 742 mmHg 80%
    20:00 -26°C° 0 mm 7 mps 743 mmHg 82%
    21:00 -27°C° 0 mm 6 mps 744 mmHg 83%
    22:00 -28°C° 0 mm 6 mps 744 mmHg 84%
    23:00 -28°C° 0 mm 5 mps 745 mmHg 86%

    Tomorrow, 25 February, Monday

    Time Temperature Precipitation Wind Pressure Humidity
    00:00 -29°C° 0 mm 4 mps 746 mmHg 87%
    01:00 -30°C° 0 mm 4 mps 746 mmHg 88%
    02:00 -30°C° 0 mm 4 mps 747 mmHg 89%
    03:00 -31°C° 0 mm 4 mps 747 mmHg 90%
    04:00 -30°C° 0 mm 3 mps 748 mmHg 90%
    05:00 -30°C° 0 mm 3 mps 748 mmHg 90%
    06:00 -30°C° 0 mm 3 mps 749 mmHg 91%
    07:00 -29°C° 0 mm 3 mps 749 mmHg 90%
    08:00 -29°C° 0 mm 3 mps 750 mmHg 90%
    09:00 -26°C° 0 mm 2 mps 750 mmHg 90%
    10:00 -25°C° 0 mm 2 mps 750 mmHg 87%
    11:00 -23°C° 0 mm 2 mps 750 mmHg 84%
    12:00 -21°C° 0 mm 2 mps 750 mmHg 81%
    13:00 -20°C° 0 mm 2 mps 750 mmHg 81%
    14:00 -20°C° 0 mm 2 mps 750 mmHg 81%
    15:00 -21°C° 0 mm 3 mps 750 mmHg 81%
    16:00 -20°C° 0 mm 2 mps 750 mmHg 84%
    17:00 -21°C° 0 mm 2 mps 750 mmHg 87%
    18:00 -24°C° 0 mm 2 mps 750 mmHg 90%
    19:00 -24°C° 0 mm 2 mps 751 mmHg 90%
    20:00 -25°C° 0 mm 2 mps 751 mmHg 91%
    21:00 -25°C° 0 mm 2 mps 751 mmHg 91%
    22:00 -23°C° 0 mm 1 mps 752 mmHg 91%
    23:00 -23°C° 0 mm 1 mps 752 mmHg 91%

    Day after tomorrow, 26 February, Tuesday

    Time Temperature Precipitation Wind Pressure Humidity
    00:00 -23°C° 0 mm 1 mps 752 mmHg 92%
    01:00 -22°C° 0 mm 1 mps 752 mmHg 92%
    02:00 -22°C° 0 mm 1 mps 752 mmHg 93%
    03:00 -21°C° 0 mm 1 mps 752 mmHg 93%
    04:00 -21°C° 0 mm 1 mps 752 mmHg 93%
    05:00 -20°C° 0 mm 1 mps 752 mmHg 93%
    06:00 -20°C° 0 mm 1 mps 751 mmHg 93%
    07:00 -21°C° 0.1 mm 2 mps 751 mmHg 93%
    08:00 -21°C° 0.1 mm 2 mps 751 mmHg 93%
    09:00 -20°C° 0.1 mm 2 mps 751 mmHg 93%
    10:00 -21°C° 0.2 mm 3 mps 750 mmHg 93%
    11:00 -19°C° 0.2 mm 3 mps 750 mmHg 93%
    12:00 -18°C° 0.2 mm 3 mps 749 mmHg 92%
    13:00 -18°C° 0.2 mm 4 mps 748 mmHg 92%
    14:00 -18°C° 0.2 mm 4 mps 747 mmHg 92%
    15:00 -17°C° 0.2 mm 4 mps 746 mmHg 92%
    16:00 -17°C° 0.1 mm 4 mps 746 mmHg 92%
    17:00 -17°C° 0.1 mm 4 mps 745 mmHg 93%
    18:00 -17°C° 0.1 mm 4 mps 744 mmHg 93%
    19:00 -17°C° 0.1 mm 4 mps 744 mmHg 93%
    20:00 -16°C° 0.1 mm 4 mps 743 mmHg 93%
    21:00 -16°C° 0.1 mm 4 mps 743 mmHg 93%
    22:00 -15°C° 0.3 mm 3 mps 743 mmHg 94%
    23:00 -15°C° 0.3 mm 3 mps 742 mmHg 95%

    27 February, Wednesday

    Time Temperature Precipitation Wind Pressure Humidity
    00:00 -13°C° 0.3 mm 2 mps 741 mmHg 96%
    01:00 -13°C° 0.3 mm 2 mps 741 mmHg 96%
    02:00 -11°C° 0.3 mm 1 mps 741 mmHg 97%
    03:00 -11°C° 0.3 mm 1 mps 741 mmHg 97%
    04:00 -14°C° 0 mm 2 mps 741 mmHg 96%
    05:00 -15°C° 0 mm 3 mps 741 mmHg 95%
    06:00 -17°C° 0 mm 4 mps 741 mmHg 94%
    07:00 -18°C° 0 mm 5 mps 742 mmHg 91%
    08:00 -19°C° 0 mm 5 mps 742 mmHg 89%
    09:00 -20°C° 0 mm 6 mps 743 mmHg 86%
    10:00 -20°C° 0 mm 6 mps 744 mmHg 85%
    11:00 -18°C° 0 mm 6 mps 744 mmHg 85%
    12:00 -18°C° 0 mm 6 mps 744 mmHg 84%
    13:00 -18°C° 0 mm 6 mps 744 mmHg 85%
    14:00 -18°C° 0 mm 6 mps 744 mmHg 85%
    15:00 -17°C° 0 mm 6 mps 744 mmHg 85%
    16:00 -19°C° 0 mm 5 mps 744 mmHg 85%
    17:00 -20°C° 0 mm 5 mps 744 mmHg 85%
    18:00 -20°C° 0 mm 4 mps 744 mmHg 85%
    19:00 -22°C° 0 mm 4 mps 744 mmHg 87%
    20:00 -23°C° 0 mm 4 mps 744 mmHg 88%
    21:00 -23°C° 0 mm 3 mps 745 mmHg 90%
    22:00 -24°C° 0 mm 3 mps 745 mmHg 91%
    23:00 -25°C° 0 mm 3 mps 744 mmHg 91%

    28 February, Thursday

    Time Temperature Precipitation Wind Pressure Humidity
    00:00 -25°C° 0 mm 2 mps 744 mmHg 92%
    01:00 -25°C° 0 mm 2 mps 744 mmHg 93%
    02:00 -25°C° 0 mm 2 mps 744 mmHg 93%
    03:00 -25°C° 0 mm 2 mps 744 mmHg 93%
    04:00 -25°C° 0 mm 2 mps 744 mmHg 93%
    05:00 -25°C° 0 mm 2 mps 744 mmHg 92%
    06:00 -25°C° 0 mm 2 mps 744 mmHg 92%
    07:00 -24°C° 0 mm 2 mps 744 mmHg 91%
    08:00 -21°C° 0 mm 2 mps 743 mmHg 89%
    09:00 -22°C° 0 mm 3 mps 743 mmHg 87%
    10:00 -19°C° 0 mm 3 mps 743 mmHg 87%
    11:00 -17°C° 0 mm 3 mps 743 mmHg 86%
    12:00 -15°C° 0 mm 3 mps 742 mmHg 85%
    13:00 -15°C° 0 mm 4 mps 742 mmHg 85%
    14:00 -14°C° 0 mm 4 mps 741 mmHg 84%
    15:00 -14°C° 0 mm 4 mps 741 mmHg 83%
    16:00 -14°C° 0 mm 3 mps 740 mmHg 85%
    17:00 -15°C° 0 mm 3 mps 740 mmHg 88%
    18:00 -15°C° 0 mm 2 mps 740 mmHg 90%
    19:00 -16°C° 0 mm 2 mps 740 mmHg 91%
    20:00 -17°C° 0 mm 2 mps 739 mmHg 92%
    21:00 -18°C° 0 mm 2 mps 739 mmHg 93%
    22:00 -18°C° 0 mm 2 mps 739 mmHg 94%
    23:00 -18°C° 0 mm 2 mps 739 mmHg 95%

    1 March, Friday

    Time Temperature Precipitation Wind Pressure Humidity
    00:00 -19°C° 0 mm 2 mps 739 mmHg 97%
    01:00 -19°C° 0 mm 2 mps 738 mmHg 97%
    02:00 -19°C° 0 mm 2 mps 738 mmHg 98%
    03:00 -19°C° 0 mm 2 mps 738 mmHg 99%
    04:00 -16°C° 0 mm 1 mps 738 mmHg 98%
    05:00 -16°C° 0 mm 1 mps 738 mmHg 98%
    06:00 -15°C° 0 mm 1 mps 738 mmHg 98%
    07:00 -13°C° 0.2 mm 1 mps 737 mmHg 97%
    08:00 -12°C° 0.2 mm 1 mps 737 mmHg 96%
    09:00 -11°C° 0.2 mm 1 mps 737 mmHg 95%
    10:00 -10°C° 0.4 mm 1 mps 736 mmHg 95%
    11:00 -10°C° 0.4 mm 2 mps 736 mmHg 94%
    12:00 -9°C° 0.4 mm 2 mps 736 mmHg 94%
    13:00 -7°C° 0.4 mm 1 mps 735 mmHg 92%
    14:00 -7°C° 0.4 mm 1 mps 735 mmHg 91%
    15:00 -6°C° 0.4 mm 1 mps 735 mmHg 90%
    16:00 -7°C° 0.3 mm 1 mps 735 mmHg 92%
    17:00 -7°C° 0.3 mm 1 mps 735 mmHg 94%
    18:00 -7°C° 0.3 mm 1 mps 735 mmHg 96%
    19:00 -9°C° 0.2 mm 2 mps 735 mmHg 96%
    20:00 -9°C° 0.2 mm 2 mps 735 mmHg 96%
    21:00 -10°C° 0.2 mm 3 mps 735 mmHg 95%
    22:00 -12°C° 0.2 mm 4 mps 735 mmHg 94%
    23:00 -12°C° 0.2 mm 4 mps 735 mmHg 93%
    Show more